#timestamp,LO_Frequency,Hit,StdDev 
1657886415.7,286047010.5,Y
1657886435.5,286047006.0,P
1657886455.3,286047006.0,P
1657886475.2,286047001.3,N
1657886495.0,286047005.2,N
1657886495.9,286047005.2,N
1657886515.8,286047009.5,Y
1657886535.6,286047005.2,P
1657886555.4,286047005.8,P
1657886575.3,286047001.3,P
1657886595.1,286047000.7,N
1657886615.8,286046998.9,N
1657886635.7,286046999.1,N
1657886655.5,286046994.2,N
1657886675.4,286046996.3,N
1657886695.2,286047000.4,N
1657886715.0,286046998.2,N
1657886715.9,286046998.2,N
1657886735.8,286047001.6,N
1657886755.6,286047002.1,N
1657886775.4,286047006.0,N
1657886795.3,286046999.0,N
1657886815.1,286046994.9,N
1657886835.9,286046995.0,N
1657886855.7,286046994.0,N
1657886875.5,286046997.2,N
1657886895.4,286046993.9,N
1657886915.2,286046996.4,N
1657886935.1,286046996.6,N
1657886936.0,286046996.6,N
1657886955.8,286046999.9,N
1657886975.6,286047000.3,N
1657886995.5,286047000.4,N
1657887015.3,286047001.0,N
1657887035.1,286046999.7,N
1657887055.9,286047000.9,N
1657887075.7,286047000.7,N
1657887095.6,286046998.2,N
1657887115.4,286046998.2,N
1657887135.2,286046993.6,N
1657887155.1,286046993.7,N
1657887156.0,286046993.7,N
1657887175.8,286046990.5,Y
1657887195.7,286046997.6,P
1657887215.5,286046997.2,P
1657887235.3,286046998.7,P
1657887255.2,286046996.5,Y
1657887275.0,286047002.1,P
1657887275.9,286047002.1,N
1657887295.7,286047001.0,N
1657887315.6,286046998.5,N
1657887335.4,286046998.2,N
1657887355.3,286047000.0,N
1657887375.1,286047002.5,N
1657887376.0,286047002.5,N
1657887395.8,286046997.3,N
1657887415.7,286046995.3,N
1657887435.5,286046994.5,N
1657887455.4,286046991.8,Y
1657887475.2,286046994.1,P
1657887495.0,286046992.3,N
1657887495.9,286046992.3,N
1657887515.8,286046990.9,Y
1657887535.6,286046997.2,P
1657887555.4,286046999.6,N
1657887575.3,286046995.1,N
1657887595.1,286046995.2,N
1657887615.9,286046997.9,N
1657887635.7,286046995.5,N
1657887655.5,286046996.1,N
1657887675.4,286046994.0,Y
1657887695.2,286046998.2,P
1657887715.0,286047000.9,N
1657887715.9,286047000.9,N
1657887735.8,286047002.0,N
1657887755.6,286046998.6,N
1657887775.5,286047002.8,N
1657887795.3,286047000.0,N
1657887815.1,286047004.1,N
1657887835.9,286047004.4,N
1657887855.7,286047002.8,N
1657887875.5,286047000.3,N
1657887895.4,286047002.6,N
1657887915.2,286046998.9,N
1657887935.1,286046997.3,N
1657887936.0,286046997.3,N
1657887955.8,286046998.9,N
1657887975.6,286046998.1,N
1657887995.5,286046999.1,N
1657888015.3,286046996.8,N
1657888035.1,286046995.4,N
1657888055.9,286046996.5,N
1657888075.7,286046998.6,N
1657888095.6,286047003.4,N
1657888115.4,286046998.7,N
1657888135.2,286046997.3,N
1657888155.1,286046993.3,N
1657888156.0,286046993.3,N
1657888175.8,286046996.4,N
1657888195.7,286046993.6,N
1657888215.5,286046993.3,N
1657888235.3,286046994.5,N
1657888255.2,286046996.4,N
1657888275.0,286046995.6,N
1657888275.9,286046995.6,N
1657888295.7,286046996.4,N
1657888315.6,286046997.1,N
1657888335.4,286046999.6,N
1657888355.3,286046998.5,N
1657888375.1,286046997.2,N
1657888376.0,286046997.2,N
1657888395.8,286046997.3,N
1657888415.7,286046997.5,N
1657888435.5,286046997.0,N
1657888455.3,286046999.5,N
1657888475.2,286046998.7,N
1657888495.0,286047000.5,N
1657888495.9,286047000.5,N
1657888515.8,286046998.7,N
1657888535.6,286046999.3,N
1657888555.4,286046996.7,N
1657888575.3,286046995.0,N
1657888595.1,286046999.1,N
1657888615.9,286046998.6,N
1657888635.7,286046999.1,N
1657888655.5,286046996.6,N
1657888675.4,286046997.0,N
1657888695.2,286046995.8,N
1657888715.0,286046996.7,N
1657888715.9,286046996.7,N
1657888735.8,286046999.5,N
1657888755.6,286046998.3,N
1657888775.5,286046999.1,N
1657888795.3,286046995.5,Y
1657888815.1,286046997.8,P
1657888835.9,286046998.0,P
1657888855.7,286046995.1,P
1657888875.6,286046996.0,Y
1657888895.4,286046997.8,P
1657888915.2,286046999.0,P
1657888935.1,286046997.2,P
1657888936.0,286046997.2,Y
1657888955.8,286047000.5,P
1657888975.6,286046998.8,N
1657888995.5,286047000.6,N
1657889015.3,286047002.5,N
1657889035.2,286047003.1,N
1657889055.9,286047003.5,N
1657889075.7,286047005.6,N
1657889095.6,286047004.1,N
1657889115.4,286047003.2,N
1657889135.2,286047003.4,N
1657889155.1,286046999.7,N
1657889156.0,286046999.7,N
1657889175.8,286047000.9,N
1657889195.7,286046999.9,N
1657889215.5,286047000.6,N
1657889235.3,286047001.7,N
1657889255.2,286047005.9,N
1657889275.0,286047003.5,N
1657889275.9,286047003.5,N
1657889295.8,286047007.6,Y
1657889315.6,286047003.1,P
1657889335.4,286047005.6,P
1657889355.3,286047004.1,N
1657889375.1,286047001.7,N
1657889395.9,286047002.2,N
1657889415.7,286047006.0,Y
1657889435.5,286046996.9,P
1657889455.4,286046997.8,N
1657889475.2,286047000.9,N
1657889495.0,286047001.1,N
1657889496.0,286047001.1,N
1657889515.8,286046996.7,N
1657889535.6,286046996.5,N
1657889555.5,286046993.8,N
1657889575.3,286046995.0,N
1657889595.1,286046996.6,N
1657889615.9,286046998.2,N
1657889635.7,286046996.8,N
1657889655.6,286046996.8,N
1657889675.4,286047000.4,N
1657889695.2,286046998.8,N
1657889715.1,286046997.8,N
1657889716.0,286046997.8,N
1657889735.8,286046998.0,N
1657889755.6,286046996.6,N
1657889775.5,286046999.1,N
1657889795.3,286046995.7,N
1657889815.2,286046997.4,N
1657889835.9,286046996.5,N
1657889855.7,286046996.8,N
1657889875.6,286046996.5,N
1657889895.4,286046999.0,N
1657889915.2,286046999.2,N
1657889935.1,286046995.4,N
1657889936.0,286046995.4,N
1657889955.8,286046997.7,N
1657889975.7,286046995.5,N
1657889995.5,286046999.3,N
